Location: Eckley
(40.9930°N, 75.8630°W)
Time: 10:10:29
(UTC-04:00)

Daily predictions for brighter satellites

Satellite Brightness Start Highest point End
(mag) Time Altitude Azimuth Time Altitude Azimuth Time Altitude Azimuth
Cosmos 2184 Rocket 4.1 20:49:34 10° SSE 20:55:32 56° E 21:01:34 10° NNE
CZ-3C R/B 4.4 20:22:34 10° SW 20:56:06 24° SSW 21:04:36 10° SE
ERBS 2.5 20:53:02 10° NW 20:56:30 64° NE 20:59:55 10° SE
CZ-2D R/B 4.1 20:52:52 10° S 20:56:36 52° W 21:00:21 10° NNW
Meteor 2-3 Rocket 3.8 20:51:01 10° S 20:56:39 89° W 21:02:16 10° N
FENGYUN 3A 4.1 20:52:26 10° S 20:57:47 67° WSW 21:03:10 10° NNW
Cosmos 1356 Rocket 3.5 20:54:46 10° S 20:58:56 63° E 21:03:11 10° NNE
Cosmos 1733 Rocket 3.3 20:54:48 10° SSE 20:59:02 48° E 21:03:17 10° NNE
Cosmos 2263 Rocket 3.5 20:54:20 10° SW 20:59:46 46° WNW 21:05:13 10° NNE
SL-8 R/B 3.7 20:57:04 10° SW 21:01:54 82° SSE 21:06:43 10° ENE
YAOGAN 11 4.2 20:58:02 10° SSE 21:02:32 76° ENE 21:07:06 10° N
Cosmos 407 Rocket 4.3 20:58:13 10° N 21:03:07 38° ENE 21:08:02 10° SE
PSLV R/B 3.5 21:04:07 10° W 21:07:30 59° SSW 21:10:49 11° ESE
Meteor 1-27 Rocket 4.5 21:02:27 10° N 21:07:30 34° ENE 21:12:29 10° SE
ERS-1 Rocket 3.0 21:04:11 10° SSE 21:09:12 73° ENE 21:14:14 10° N
Meteor 2-10 Rocket 3.8 21:03:52 10° N 21:09:44 84° E 21:15:25 10° S
Cosmos 1452 Rocket 4.4 21:05:45 10° SSE 21:10:11 28° E 21:14:39 10° NE
Cosmos 1340 Rocket 3.6 21:08:06 10° SSW 21:12:01 57° WNW 21:16:00 10° N
Cosmos 909 Rocket 4.3 21:06:50 10° SSW 21:13:18 86° ESE 21:21:07 10° NNE
Abrixas rocket 4.1 21:12:16 10° W 21:15:04 24° SW 21:17:50 10° SSE
Cosmos 1190 Rocket 4.1 21:10:40 10° NNW 21:15:49 60° ENE 21:20:55 10° SSE
CZ-4 DEB 3.4 21:12:49 10° S 21:15:56 57° W 21:19:03 10° NNW
Cosmos 1782 2.9 21:15:37 10° N 21:19:36 59° E 21:23:35 10° SSE
Atlas Centaur 2 2.9 21:20:01 10° SW 21:22:15 16° S 21:23:48 13° SSE
USA 234 4.3 21:18:13 10° ENE 21:22:43 19° ESE 21:27:11 10° SSE
USA 186 4.0 21:20:14 10° SSW 21:22:47 24° W 21:25:27 10° NW
Cosmos 1939 Rocket 2.7 21:20:06 10° SSE 21:23:57 76° ENE 21:27:52 10° N
Cosmos 1606 3.4 21:21:43 10° N 21:25:27 39° ENE 21:28:25 15° SE
H-2A R/B 2.1 21:21:23 10° SSE 21:25:40 66° ENE 21:29:53 10° N
Cosmos 2074 Rocket 4.2 21:22:36 10° SSW 21:28:54 77° W 21:35:12 10° N
CZ-4B R/B 4.5 21:26:07 10° NE 21:30:11 25° E 21:33:05 15° SE
Cosmos 1892 3.8 21:28:23 10° SSW 21:32:05 48° W 21:35:51 10° N
Cosmos 1610 Rocket 4.5 21:31:44 10° S 21:37:52 86° E 21:44:08 10° N
Nadezhda 3 Rocket 4.1 21:38:07 10° N 21:44:28 68° E 21:50:03 14° SSE
Cosmos 676 Rocket 4.0 21:40:49 10° NNW 21:46:00 67° ENE 21:49:43 19° SSE
Cosmos 1184 Rocket 3.5 21:45:10 24° SE 21:46:27 34° E 21:49:31 10° NNE
Okean 2 Rocket 3.8 21:45:32 20° SE 21:48:00 35° E 21:52:01 10° NNE
Cosmos 2056 Rocket 4.3 21:43:52 10° SW 21:48:55 53° WNW 21:53:56 10° N
CENTAUR R/B 3.8 21:42:28 10° NW 21:50:02 50° WSW 21:57:57 10° S
MetOp-B 4.1 21:46:46 16° SSE 21:50:59 70° ENE 21:56:20 10° N
Cosmos 1174 3.3 21:48:04 10° NNW 21:51:18 57° ENE 21:52:28 32° ESE
Cosmos 1954 Rocket 4.2 21:47:05 10° NNW 21:52:14 58° ENE 21:55:30 22° SE
Cosmos 1674 Rocket 4.3 21:49:57 10° NNW 21:54:19 53° W 21:58:37 10° S
Sich 1 Rocket 3.9 21:50:05 10° SSW 21:54:39 71° W 21:59:15 10° N
CZ-4 SHROUD 3.1 21:59:37 31° SSE 22:00:56 89° ENE 22:04:02 10° NNW
Intercosmos 25 3.6 22:02:34 31° SE 22:03:37 40° E 22:06:40 10° NNE
Cosmos 2341 Rocket 4.0 21:57:57 10° S 22:04:15 79° E 22:10:32 10° N
ARGOS 3.3 22:01:08 24° SE 22:04:17 56° ENE 22:09:31 10° N
COSMOS 2406 4.4 21:59:11 10° NW 22:04:28 39° WSW 22:09:42 10° S
ATLAS 5 CENTAUR R/B 3.4 22:00:06 10° NW 22:05:46 41° WSW 22:10:53 14° S
SL-27 R/B 4.1 22:03:16 10° NW 22:06:31 30° WSW 22:09:10 13° SSW
COS B Rocket 3.7 22:03:01 10° N 22:07:10 63° W 22:10:09 15° SSW
Cosmos 1782 Rocket 3.5 22:04:17 19° S 22:07:27 73° E 22:11:56 10° NNE
Meteor 2-13 Rocket 4.4 22:07:54 17° S 22:12:47 67° E 22:18:53 10° NNE
Okean 3 3.4 22:08:31 10° N 22:12:50 90° E 22:14:59 29° S
PSLV R/B 3.8 22:12:36 31° SSW 22:13:41 49° W 22:16:34 10° NNW
COSMOS 2487 2.4 22:11:15 10° NNW 22:14:53 77° ENE 22:15:53 45° SSE
DNEPR-1 R/B 4.4 22:09:57 10° NNW 22:15:17 49° NE 22:17:21 29° ESE
Timation 2 Rocket 4.1 22:10:53 10° NNW 22:16:49 57° ENE 22:19:46 29° SE
APEX 3.7 22:17:23 39° SE 22:17:56 41° ESE 22:22:24 10° NE
Cosmos 1238 Rocket 2.8 22:15:33 10° NNW 22:18:41 61° W 22:20:11 31° SSW
Cosmos 2278 Rocket 2.1 22:13:40 10° SSW 22:19:20 87° ESE 22:25:03 10° NNE
SPOT 5 3.8 22:17:34 15° S 22:21:45 50° W 22:26:59 10° NNW
Cosmos 1833 Rocket 3.8 22:17:17 10° N 22:22:14 30° ENE 22:24:36 22° E
Cosmos 1844 4.3 22:17:23 10° SW 22:23:04 60° WNW 22:28:49 10° NNE
Cosmos 1023 Rocket 4.4 22:18:13 10° NNW 22:23:20 74° ENE 22:25:29 35° SSE
Cosmos 1975 Rocket 3.0 22:19:03 10° N 22:23:24 83° W 22:25:16 33° S
Cosmos 1825 3.0 22:21:19 15° SSW 22:24:20 51° W 22:28:05 10° N
Envisat 4.5 22:20:25 10° SSW 22:24:56 32° W 22:29:30 10° NNW
SL-8 Rocket 4.0 22:21:27 23° S 22:25:31 68° E 22:31:43 10° NNE
CARTOSAT-1 4.4 22:24:39 31° E 22:25:33 34° ENE 22:29:28 10° N
ISS -3.5 22:22:55 10° SW 22:25:57 71° S 22:25:57 71° S
Terra 2.6 22:25:43 31° ESE 22:27:02 37° ENE 22:31:24 10° N
Cosmos 1844 Rocket 4.0 22:22:35 10° SW 22:27:53 40° WNW 22:33:13 10° N
YAOGAN 6 3.6 22:29:22 27° SSW 22:30:46 40° W 22:34:07 10° NNW
Cosmos 1408 3.9 22:29:47 14° SW 22:32:36 38° WNW 22:36:03 10° N
Cosmos 1420 Rocket 3.9 22:31:28 17° SSW 22:35:34 89° SE 22:40:51 10° NNE
Cosmos 1536 Rocket 4.1 22:31:54 10° N 22:36:09 41° ENE 22:36:45 39° E
H-2A R/B 2.3 22:34:39 37° SE 22:36:33 57° ENE 22:41:47 10° N
ASTEX 1 4.5 22:34:47 10° NNE 22:39:01 28° E 22:39:07 28° E
Cosmos 2082 Rocket 2.6 22:33:46 10° NNW 22:39:20 51° ENE 22:41:15 36° ESE
USA 245 3.8 22:40:06 36° SW 22:40:42 40° W 22:44:13 10° NNW
Cosmos 1812 4.1 22:37:31 10° NNE 22:40:32 26° ENE 22:40:32 26° ENE
Cosmos 1242 Rocket 2.9 22:39:44 10° NNW 22:43:20 59° W 22:43:57 50° SW
CZ-4C R/B 3.1 22:49:12 75° SSE 22:49:31 87° ENE 22:53:33 10° NNW
Cosmos 614 Rocket 3.8 22:46:09 10° NNW 22:51:16 86° ENE 22:52:31 52° SSE
SPOT 1/Viking Rocket 4.3 22:49:15 26° SSW 22:51:50 46° W 22:56:52 10° NNW
Cosmos 2297 3.6 22:48:46 27° SSW 22:52:00 82° ESE 22:57:46 10° NNE
SL-08 RB Rocket 4.1 22:51:07 39° SSW 22:52:36 58° W 22:57:10 10° NNW
Cosmos 2151 Rocket 3.5 22:52:35 59° S 22:53:25 83° E 22:57:59 10° N
Cosmos 1140 Rocket 3.9 22:51:37 10° NNW 22:56:38 54° WSW 22:58:17 38° SSW
Cosmos 864 Rocket 4.3 22:54:36 38° S 22:57:10 81° E 23:03:20 10° N
Cosmos 2366 rocket 4.0 23:01:48 34° SSW 23:04:47 83° W 23:11:09 10° N
USA 234 3.1 22:59:45 10° NE 23:06:19 80° SE 23:12:51 10° SW
SAR-Lupe-2 4.3 23:11:18 49° NNE 23:11:18 49° NNE 23:14:06 10° N
Spot 2 4.2 23:11:38 10° NNE 23:15:27 60° ENE 23:15:27 60° ENE
Okean 1 Rocket 3.5 23:22:47 53° ENE 23:22:47 53° ENE 23:26:34 10° NNE
Cosmos 1300 Rocket 3.7 23:23:42 63° NE 23:23:42 63° NE 23:27:38 10° NNE
Okean 1-7 Rocket 4.0 23:19:41 10° N 23:23:41 52° NE 23:23:41 52° NE
BREEZE-M DEB (TANK) 4.4 23:25:18 10° NW 23:27:27 22° NNE 23:31:30 10° ENE
DMSP B5D2-2 4.3 23:22:36 10° N 23:27:46 65° WNW 23:29:16 44° SW
Cosmos 2369 Rocket 3.9 23:31:03 19° ENE 23:31:03 19° ENE 23:33:33 10° NE
Okean 1 3.8 23:27:13 10° N 23:30:38 61° NNW 23:30:38 61° NNW
IGS 5A 4.2 23:32:35 46° W 23:32:35 46° W 23:36:25 10° NNW
Meteor 1-20 Rocket 4.3 23:33:04 53° SW 23:34:20 72° W 23:39:54 10° N
Cosmos 1000 Rocket 4.4 23:36:55 10° N 23:43:11 75° E 23:44:01 65° SE
Cosmos 2239 Rocket 4.4 23:47:42 65° SE 23:48:21 71° E 23:54:39 10° NNE
